Location: Aalen
(48.8330°N, 10.1000°E)
Time: 19:44:30
(UTC+02:00)

S-56A Canister/Altair - Pass Details

Date: 02 August 2021
Orbit: 632 x 2500 km, 38.9° (Epoch: 19 September)

Event Time Altitude Azimuth Distance (km) Brightness Sun altitude
Rises 20:42:20 0° 277° (W) 6,116 13.8 1.2°
Reaches altitude 10° 20:46:38 10° 271° (W) 5,160 13.1 0.6°
Maximum altitude 20:59:58 40° 210° (SSW) 3,152 10.7 -1.3°
Drops below altitude 10° 21:11:23 10° 147° (SSE) 4,419 10.8 -3.0°
Enters shadow 21:14:23 - 140° (SE) 5,096 11.1 -3.4°
Sets 21:14:45 0° 140° (SE) 5,184 - -3.4°
